Regional Weather Roundup
Issued by NWS Lake Charles, LA

Home | Current Version | Previous Version | Text Only | Print | Product List | Glossary On
Versions: 1 2 3 4 5 6 7 8 9 10 11 12 13 14 15 16 17 18 19 20 21 22 23 24 25 26 27 28 29 30 31 32 33 34 35 36 37 38 39 40 41 42 43 44 45 46 47 48 49 50
000
ASUS44 KLCH 272210
RWRLCH
RWRLCH
REGIONAL WEATHER ROUNDUP
NATIONAL WEATHER SERVICE LAKE CHARLES LA
400 PM CST FRI FEB 27 2015

Note: "fair" indicates few or no clouds below 12,000 feet with no
significant weather and/or obstructions to visibility.


ACROSS SOUTHEAST TEXAS

CITY           SKY/WX    TMP DP  RH WIND       PRES   REMARKS
BEAUMONT       SUNNY     52  33  48 SE8       30.31F
BEAUMONT CITY    N/A     52  32  45 E5        30.31S
ORANGE         CLEAR     53  32  45 NE7       30.33S
JASPER         PTSUNNY   47  30  51 N13       30.36S
$$

ACROSS CENTRAL LOUISIANA

CITY           SKY/WX    TMP DP  RH WIND       PRES   REMARKS
LEESVILLE      MOSUNNY   47  28  46 N8        30.32S
FULLERTON        N/A     51  27  39 VRB7      30.32S
ALEXANDRIA INT MOSUNNY   46  26  45 NE10G17   30.36S
ESLER FIELD    MOSUNNY   47  27  45 VRB5      30.37F
DERIDDER         N/A     52  28  39 CALM      30.34S
OAKDALE        PTCLDY    49  31  50 NE9       30.34S
OPELOUSAS        N/A     49  32  52 N12       30.32F
$$

ACROSS SOUTHWEST AND SOUTH CENTRAL LOUISIANA

CITY           SKY/WX    TMP DP  RH WIND       PRES   REMARKS
SULPHUR        CLEAR     53  32  45 E8        30.32S
LAKE CHARLES   SUNNY     50  33  52 E9        30.32F
CHENNAULT INT  NOT AVBL
CAMERON PHI    CLEAR     50  34  53 NE12G18   30.34S
DEQUINCY       NOT AVBL
JENNINGS         N/A     49  34  56 NE14      30.32S
LAFAYETTE      SUNNY     51  33  50 NE12      30.31F
NEW IBERIA     SUNNY     54  35  48 N14       30.31F
ABBEVILLE        N/A     51  35  53 NE9       30.31S
PATTERSON      SUNNY     54  34  47 E13       30.30F
SALT POINT       N/A     54  35  48 VRB5      30.27F
$$

SELECTED SITES ACROSS THE REGION

CITY           SKY/WX    TMP DP  RH WIND       PRES   REMARKS
HOUSTON BUSH   CLOUDY    45  32  60 NE7       30.34F
HOUSTON HOBBY  CLOUDY    43  33  68 NE10      30.33F
GALVESTON      CLOUDY    45  38  76 NE14      30.32S
COLLEGE STAT   CLOUDY    41  27  57 NE12G20   30.32F
CONROE         CLOUDY    46  28  49 N9        30.34S
HUNTSVILLE     CLOUDY    43  28  55 NE8       30.33F
LUFKIN         CLOUDY    44  25  47 NE9       30.37S
SHREVEPORT     CLOUDY    34  20  56 NE13      30.43S WCI  25
MONROE         CLOUDY    36  23  59 N15       30.46F WCI  27
NATCHEZ MS     SUNNY     43  27  52 N13G18    30.38S
BATON ROUGE    SUNNY     52  32  46 NE9       30.32F
N.O. INTL ARPT MOSUNNY   51  34  52 N10       30.32S
SLIDELL        SUNNY     54  32  43 N10       30.31S
$$

MARINE REPORTS

STATION/POSITION TIME  TEMP    WIND        PRES    VSBY  WAVE
                       AIR SEA DIR/SP/G                  HT/PER
                 (UTC) (F)     (DEG/KT/KT) (MB)    (MI)  (FT/S)
BUOY 30 S HIGH I 2200   45 56   60/ 17/ 21 1025.8S         4/ 5
SEA RIM ST PARK  2200   46      70/  4/  6 1027.2F
PORT ARTHUR      2200          100/  8/ 10   N/A
SABINE PASS N    2200   47 52   50/  9/ 15 1026.7R
TEXAS POINT      NOT AVBL
CALCASIEU PASS   2200   49 53   70/  8/ 13   N/A
LK CHARLES BEACH 2200   52                 1026.6S
MARSH ISLAND     NOT AVBL
FRESH WATER LOCK NOT AVBL
AMERADA PASS     2200   53 47   50/  8/ 11 1025.3F
$$


USA.gov is the U.S. government's official web portal to all federal, state and local government web resources and services.